Location: Aiyekoto
(8.4333°N, 4.3667°E)
Time: 23:48:51
(UTC+00:00)

ATLAS 5 CENTAUR R/B - Visible Passes

Search period start: 01 October 2020 00:00
Search period end: 11 October 2020 00:00
Orbit: 523 x 1135 km, 63.4° (Epoch: 29 September)

Date Brightness Start Highest point End Pass type
(mag) Time Alt. Az. Time Alt. Az. Time Alt. Az.
04 Oct 3.3 19:01:42 10° S 19:02:55 18° S 19:02:55 18° S visible
05 Oct 1.9 18:42:34 10° S 18:45:36 36° SE 18:45:36 36° SE visible
06 Oct 1.8 18:23:28 10° S 18:27:07 35° ESE 18:28:23 27° ENE visible
07 Oct 2.0 18:04:23 10° S 18:07:55 31° ESE 18:11:16 10° NE visible
08 Oct 4.7 04:54:53 10° N 05:00:39 30° ENE 05:06:48 10° ESE visible
09 Oct 4.8 04:35:49 10° N 04:41:26 28° ENE 04:47:24 10° ESE visible
10 Oct 4.8 04:16:47 10° NNE 04:22:13 26° ENE 04:27:59 10° ESE visible
10 Oct 4.4 18:53:29 10° W 18:54:39 11° WNW 18:55:48 10° NW visible
